Theta_e
310 314 315 316 315 314 313 312 312 313 312 312 312 313 313 312 311 311 311 310 309 309 311 312 311 310 310 310 310 309 309 309 309 310 310 311 310 310 311 312 312 313 315 316 316 316 315 315 314 314 314 315 315 315 315 315 315 315 315 315 315 315 314 314 314 314 314 314 313 312 312 312 311 310 309 308 307 306 306 305 304 304 303 302 301 300
310 313 315 315 314 313 313 312 312 311 311 312 313 313 312 312 311 311 312 311 309 309 311 312 311 310 310 311 310 309 310 310 309 310 310 311 311 312 312 312 313 313 315 315 315 316 315 314 314 314 314 314 314 315 315 315 315 315 314 315 315 315 315 314 314 314 314 314 314 314 314 313 313 312 311 310 309 308 307 306 305 304 303 302 301 300
312 313 313 312 311 311 312 312 312 312 312 313 313 312 313 312 312 311 311 312 310 310 313 313 311 310 310 311 310 310 310 310 310 311 311 312 311 311 312 313 313 314 315 315 315 315 314 314 314 314 314 314 314 314 314 314 314 314 314 314 314 314 314 314 314 314 314 314 314 314 314 313 313 312 312 311 310 309 308 306 305 304 303 302 301 300
315 317 314 309 309 311 312 311 312 312 312 313 313 313 313 311 312 313 313 315 313 310 312 312 310 310 311 311 311 310 310 310 311 311 312 312 312 313 313 314 313 313 315 315 315 315 314 314 314 314 314 314 313 313 314 314 314 314 315 315 315 315 315 314 314 314 314 314 313 313 312 312 311 311 311 310 309 308 307 306 306 305 304 303 301 301
316 317 311 309 311 312 312 311 312 313 312 313 313 312 313 312 312 312 312 314 313 313 315 313 312 314 316 315 315 313 310 310 310 310 311 312 314 315 313 314 314 315 315 315 316 316 315 314 314 314 314 314 314 314 315 315 315 315 315 315 315 315 314 314 314 314 313 313 312 311 311 310 310 309 310 309 309 308 306 306 306 306 304 303 302 301
313 312 309 312 314 312 312 312 313 314 313 312 314 313 312 313 312 312 313 312 313 317 317 313 315 317 318 318 322 322 316 313 311 310 310 311 315 315 312 314 316 316 316 315 316 317 316 315 315 314 314 314 314 315 315 315 314 314 314 314 314 314 314 314 314 313 313 312 312 312 311 311 310 310 310 310 310 309 308 308 307 306 305 304 303 302
313 311 310 314 315 313 313 313 314 314 312 313 317 318 314 312 313 313 313 312 316 320 314 314 319 317 315 317 322 323 321 319 316 314 312 310 311 312 313 316 316 317 317 316 316 316 316 315 315 315 315 315 315 315 315 314 314 313 313 313 313 313 313 313 313 313 313 312 312 312 312 312 312 312 312 312 311 310 310 309 308 307 306 305 304 302
314 312 311 312 312 315 314 313 314 312 312 315 316 318 318 315 315 314 312 313 316 317 314 315 318 317 316 316 319 318 317 319 318 316 314 310 310 311 314 316 316 317 317 317 317 316 315 314 314 314 315 315 315 315 314 314 315 314 313 313 313 313 313 313 313 312 313 312 312 312 312 312 312 312 312 311 311 310 310 309 308 307 307 306 304 303
313 315 315 314 312 314 314 314 316 313 313 316 313 314 315 315 315 312 313 315 313 315 316 315 314 318 318 316 317 316 314 319 318 315 314 310 310 312 314 317 316 317 318 317 316 315 314 313 313 314 314 314 314 314 314 314 314 314 313 313 313 313 313 312 312 312 312 312 312 312 312 311 312 311 311 310 310 310 309 309 308 307 307 306 305 303
311 313 313 315 316 315 314 315 318 316 314 314 312 313 315 316 317 314 314 316 316 316 317 316 315 318 319 318 319 315 315 321 318 315 314 310 310 313 315 317 316 317 317 316 315 313 313 313 313 314 314 314 314 313 314 314 314 314 313 313 313 313 313 312 312 312 312 312 311 312 311 311 311 311 310 309 309 309 309 309 308 307 307 306 305 304
309 308 308 312 314 312 315 313 311 313 312 309 312 317 318 319 317 316 317 317 317 318 318 319 317 316 319 320 321 319 320 322 319 318 320 315 311 313 316 317 316 317 316 315 314 312 312 312 313 314 313 313 314 313 313 313 314 314 313 313 313 313 313 312 312 312 312 312 311 312 312 311 311 310 310 310 310 309 308 308 308 308 307 307 306 305
308 308 310 312 309 309 314 312 307 307 306 309 316 319 318 320 317 317 319 317 317 321 320 319 315 315 319 319 319 320 319 319 317 318 324 324 316 314 316 316 316 317 314 312 313 312 313 313 313 313 313 313 314 313 313 313 313 313 313 313 313 312 312 312 312 312 312 312 312 312 311 311 311 310 310 310 310 310 309 309 308 308 307 307 306 306
314 313 312 311 309 309 313 314 312 310 308 310 317 316 315 319 318 318 319 318 318 321 317 314 314 314 316 316 317 318 316 317 315 313 317 320 315 312 315 316 315 315 313 312 313 313 313 314 313 313 312 313 313 313 313 313 313 312 312 313 313 312 312 312 312 312 312 312 312 311 311 311 310 310 310 310 310 310 309 309 308 308 308 307 307 307
320 317 311 310 311 310 312 314 314 315 313 311 314 316 316 318 319 319 321 318 318 319 314 312 314 315 316 317 318 317 314 313 312 310 310 311 311 313 313 313 313 313 313 313 313 313 312 312 313 312 312 312 312 312 313 313 312 312 312 312 312 312 311 311 312 312 312 312 312 311 311 310 310 310 310 310 310 309 309 309 308 308 308 308 308 308
318 319 316 314 314 312 311 312 315 319 315 311 314 316 316 319 322 322 323 322 320 321 315 310 315 319 318 319 320 317 312 310 310 310 310 310 310 311 311 311 312 313 313 313 312 312 311 311 312 312 312 312 312 312 312 312 312 312 311 311 312 311 311 311 311 311 312 312 312 311 310 310 310 310 309 310 310 309 309 309 308 308 308 308 308 308
315 319 320 313 311 312 312 311 314 319 316 312 315 317 315 319 321 319 321 323 320 321 317 313 317 320 317 316 317 316 312 309 309 308 308 310 310 309 310 312 313 313 313 312 311 311 311 311 311 312 312 312 312 312 312 312 312 312 311 311 311 311 311 311 310 311 311 311 311 311 311 310 310 310 310 310 310 309 309 309 309 308 308 308 308 308
315 318 319 311 309 312 312 309 311 314 316 314 314 316 315 316 318 316 318 319 317 319 319 318 319 318 316 316 315 317 318 315 314 312 307 306 308 310 311 312 312 312 312 311 311 312 312 312 312 311 312 312 312 312 312 312 312 312 312 312 311 311 311 311 310 310 310 310 310 311 310 310 309 309 310 309 309 309 309 308 308 308 308 308 308 308
316 316 318 314 313 311 305 306 309 308 311 315 316 316 314 314 316 316 318 319 317 318 319 318 320 318 318 319 315 317 321 318 318 318 312 307 308 310 311 311 311 310 310 311 311 311 311 311 312 312 311 311 311 311 311 311 311 311 311 312 312 312 312 311 311 310 309 309 309 310 310 310 309 309 309 308 308 308 308 308 308 308 308 308 308 307
316 314 317 316 314 312 305 307 313 308 307 312 315 314 314 317 317 316 318 319 318 318 319 319 319 317 318 318 316 317 319 318 319 320 317 313 309 309 310 311 310 309 309 310 309 309 309 310 311 311 311 310 310 309 310 310 310 309 309 309 310 311 311 311 311 310 310 310 309 309 309 309 309 309 308 308 307 307 307 307 307 307 307 307 307 307
318 315 317 315 313 313 310 311 316 314 309 308 309 311 313 316 317 317 318 318 317 318 319 319 320 319 318 317 317 318 320 321 322 320 318 315 309 307 309 310 310 310 310 308 307 307 309 309 309 309 309 309 308 308 309 309 309 309 308 308 308 309 310 310 310 310 311 311 310 310 309 309 309 309 309 308 308 307 307 307 307 307 307 306 306 306
317 315 316 316 313 312 313 314 316 317 315 312 311 313 312 312 315 316 314 315 316 316 317 319 319 319 320 319 317 317 319 322 320 317 316 312 308 309 311 312 312 312 312 311 308 306 306 307 307 308 308 307 307 308 308 308 308 308 308 308 307 307 308 308 308 308 309 309 309 310 310 309 309 309 308 308 308 308 308 308 308 308 308 307 307 306
315 315 316 317 316 313 314 316 316 317 319 317 315 315 314 313 315 315 314 316 316 315 316 318 317 319 322 321 316 314 316 319 316 314 313 311 309 311 312 311 310 310 310 310 309 308 306 306 305 305 306 307 307 307 307 306 307 307 308 308 308 307 306 307 307 306 307 307 307 308 308 308 308 307 307 307 307 308 308 308 309 309 309 309 308 308
314 315 316 317 317 315 316 316 315 315 316 315 314 315 315 314 313 314 315 316 316 315 315 316 316 318 320 319 316 314 314 314 311 309 310 310 310 311 310 307 307 306 306 306 306 308 308 307 306 306 305 306 305 305 306 305 306 306 306 307 307 307 306 306 306 306 305 306 307 307 307 306 306 306 305 306 307 307 308 308 308 308 308 308 308 307
311 314 316 316 317 317 317 317 314 311 312 314 314 314 314 314 314 315 314 314 316 316 315 317 317 318 322 323 318 315 314 312 311 310 308 307 307 307 304 303 303 303 303 304 304 305 306 307 307 306 305 304 304 305 305 305 305 305 305 305 306 306 306 306 306 306 305 304 306 307 307 307 306 306 305 305 306 307 307 308 307 307 307 307 307 306
311 314 316 316 317 317 318 318 314 311 312 314 315 315 314 314 314 314 314 314 315 315 316 317 316 318 324 325 318 315 314 313 312 309 304 302 301 300 299 299 300 301 301 302 302 303 304 305 305 303 302 302 302 302 303 303 303 303 303 304 304 304 305 305 305 306 305 305 306 306 305 306 306 306 306 306 306 307 307 307 307 306 306 306 306 306
311 313 315 315 316 316 316 316 315 314 313 312 313 314 313 313 314 314 314 315 315 316 316 316 316 316 319 319 315 315 314 312 308 301 298 299 297 295 296 296 297 298 298 299 299 300 301 302 302 301 300 299 299 299 299 300 300 300 301 302 303 303 304 305 305 305 306 306 306 306 305 304 304 305 306 306 307 307 307 306 306 306 306 306 306 305
311 312 314 314 314 315 314 315 314 314 313 312 312 313 313 313 312 312 313 313 314 314 314 314 315 314 314 314 313 310 307 304 301 296 295 296 295 294 294 294 295 296 296 297 297 298 298 298 298 299 298 298 297 297 297 297 297 298 299 300 301 302 302 303 304 305 305 305 306 306 305 304 304 304 305 305 305 306 306 305 305 305 305 305 305 305
309 310 312 312 312 313 313 312 312 312 312 312 312 312 312 312 311 311 312 312 312 313 313 313 313 313 313 312 308 302 298 297 296 295 294 294 293 294 294 294 294 295 295 295 295 295 296 295 295 295 295 295 295 295 295 296 296 297 297 298 299 300 300 301 303 304 305 305 305 305 305 305 305 304 304 304 304 304 305 305 305 304 304 304 304 304
308 307 308 309 309 310 309 308 308 309 309 310 311 311 311 311 312 312 311 311 312 312 312 312 312 312 312 306 299 295 294 294 295 294 293 293 293 293 293 293 294 294 294 294 294 294 293 293 292 292 292 292 293 293 293 294 295 295 295 296 296 297 298 299 300 302 303 303 304 304 304 305 305 304 304 304 303 303 304 304 304 304 303 303 303 303
306 306 307 308 306 306 306 306 306 307 307 308 309 310 310 310 310 311 311 311 311 311 312 311 311 312 307 298 295 295 293 293 294 294 293 293 293 293 293 293 293 293 293 293 293 293 292 292 292 291 291 291 291 291 291 291 292 292 293 293 294 295 295 296 297 300 301 302 302 302 302 303 304 304 303 302 302 302 302 302 303 303 303 303 302 302
305 306 305 305 304 304 304 304 305 306 306 306 307 308 308 308 309 308 308 309 309 310 310 310 312 312 302 293 293 294 293 293 294 293 293 293 292 293 293 293 293 293 292 292 292 292 292 292 291 290 290 291 290 290 290 290 290 291 291 292 292 292 293 294 295 297 299 301 301 300 300 300 300 301 301 300 300 300 300 301 301 302 302 302 302 301
304 303 302 302 302 302 303 303 303 303 304 304 304 305 305 304 305 304 305 306 307 308 309 311 311 306 297 292 293 293 293 293 293 292 293 293 293 293 293 293 293 293 292 292 292 292 291 291 291 290 290 289 290 290 290 290 290 290 290 291 291 291 292 293 294 294 296 298 300 300 299 299 298 298 298 298 298 298 298 299 299 300 300 301 301 301
300 300 300 300 300 301 301 302 302 302 302 302 302 303 304 303 303 304 305 304 302 303 306 306 303 297 293 293 293 292 292 293 292 292 292 292 293 293 293 292 293 292 292 292 292 291 291 291 290 290 289 289 289 289 289 290 290 290 290 290 290 291 291 292 292 293 294 295 297 299 299 299 299 298 298 297 296 296 296 296 297 298 299 299 299 299
299 299 299 299 299 299 299 300 300 299 299 299 301 302 303 303 303 304 302 299 297 298 299 298 296 294 293 293 292 292 292 291 292 291 291 292 293 293 292 292 292 292 292 292 292 291 291 290 290 289 289 289 289 289 289 289 289 289 290 290 290 290 291 291 291 292 293 294 295 297 297 298 298 298 299 298 297 296 295 295 296 296 297 297 297 297
297 297 297 298 298 297 298 298 298 297 298 299 299 298 298 299 300 299 297 295 295 295 294 293 294 294 293 293 293 292 292 291 292 291 290 292 294 292 291 292 292 292 292 292 292 291 290 290 289 289 289 288 288 288 288 288 289 289 289 289 289 290 290 290 291 291 292 292 293 294 295 296 296 296 297 298 299 297 295 294 294 295 295 295 296 296
296 296 296 297 297 297 298 298 298 297 298 299 297 296 296 297 297 297 297 295 295 295 293 293 294 294 293 293 293 292 291 291 291 291 291 293 292 291 291 291 291 292 291 291 292 291 290 289 288 288 288 288 288 288 288 288 288 288 288 288 288 289 289 289 290 290 291 291 292 292 293 294 294 295 295 296 298 298 297 295 293 293 293 293 294 294
296 297 297 297 298 298 298 298 299 298 299 301 299 297 295 294 295 297 298 296 294 293 293 293 294 294 293 293 292 291 291 291 291 291 293 292 290 289 290 290 291 291 291 291 291 291 290 288 288 288 288 288 287 287 287 287 287 287 287 287 287 287 288 288 289 289 290 290 291 291 292 292 293 294 294 295 296 297 298 296 294 293 292 292 292 293
296 297 297 297 298 299 300 300 300 300 300 301 300 296 293 293 294 295 296 295 292 290 290 293 295 295 294 293 292 292 292 291 290 291 292 291 290 290 290 290 290 291 291 291 291 291 290 288 288 288 287 287 287 287 287 287 286 287 287 287 287 286 286 287 287 287 288 289 290 290 291 291 292 293 294 294 295 296 297 297 296 294 292 291 291 291
295 296 298 298 298 300 300 299 299 298 299 300 299 296 293 292 293 294 295 297 293 287 288 293 295 294 294 293 292 292 292 291 290 290 291 290 290 290 290 290 290 290 291 291 291 290 289 288 287 287 287 287 287 287 286 286 286 286 286 286 286 286 286 286 286 286 286 287 287 288 289 290 291 292 292 293 294 295 296 296 297 296 294 292 291 290
296 296 296 298 298 298 298 297 296 296 298 299 298 295 293 291 292 295 296 296 292 287 289 293 293 293 293 293 292 292 292 291 290 290 290 290 290 290 289 289 290 290 291 291 290 290 289 288 287 287 287 287 287 286 286 286 286 286 286 286 286 286 286 286 286 286 286 286 286 286 287 288 289 290 291 292 293 294 294 295 296 296 296 294 293 291
296 295 294 295 295 295 295 295 294 295 297 299 296 293 292 292 293 295 296 294 290 289 290 292 292 292 292 292 292 292 292 291 291 290 290 290 290 290 289 289 289 290 290 290 290 289 289 288 287 287 287 287 286 286 286 286 285 285 285 285 286 286 286 286 286 286 286 285 286 286 286 286 287 288 289 291 291 292 293 293 294 295 295 295 294 293
294 294 294 294 294 294 294 295 294 294 295 297 295 292 291 293 294 296 295 291 290 291 291 291 292 292 292 292 292 292 292 292 291 291 291 290 290 290 289 289 289 289 289 289 289 289 288 287 287 287 287 287 286 286 285 285 285 285 285 285 285 286 286 286 286 286 285 285 286 286 286 285 286 286 287 288 289 291 292 292 292 293 293 294 294 294
293 293 293 294 294 293 293 293 294 294 294 293 294 293 293 295 296 295 292 290 291 291 291 291 291 291 291 291 291 291 292 292 292 291 291 291 291 290 290 289 290 290 290 289 288 288 288 287 286 286 286 286 286 286 285 285 284 284 284 285 285 285 285 285 285 285 285 285 285 285 285 285 285 286 286 286 287 288 289 291 291 291 291 292 292 293
293 293 293 293 293 293 292 293 295 295 293 292 292 293 293 294 294 292 290 290 291 291 291 291 290 290 290 290 290 291 292 292 291 291 290 291 291 290 290 290 290 290 289 288 288 287 287 286 286 286 286 285 285 285 285 284 284 284 284 285 285 284 284 284 284 285 285 285 285 285 285 285 285 285 285 286 286 286 287 288 289 290 290 290 290 290
293 293 292 292 292 292 292 293 294 293 291 291 292 291 292 292 292 292 291 290 290 291 290 290 289 289 289 289 289 290 291 291 291 290 290 290 290 290 290 289 289 289 288 287 286 286 286 285 284 284 284 285 285 284 284 284 284 283 284 284 284 283 283 283 283 283 284 285 285 285 285 285 285 285 285 285 285 285 285 286 286 287 288 289 289 289
291 291 291 291 291 291 291 292 292 290 290 291 291 291 291 291 291 291 291 290 290 290 290 289 288 288 288 289 289 290 290 290 290 289 289 289 289 289 289 288 287 286 286 285 285 285 284 284 283 283 283 283 284 283 283 284 283 283 284 284 283 282 282 281 281 281 282 283 284 284 285 285 285 285 285 285 285 285 285 285 285 286 286 287 288 288
290 290 290 290 291 291 290 291 291 291 291 291 291 291 291 291 291 291 290 289 289 289 289 288 288 287 287 288 288 288 288 288 288 287 287 287 287 287 286 285 285 285 284 284 284 283 283 282 282 282 282 282 283 283 282 282 282 282 283 283 283 282 281 280 280 280 280 281 282 283 284 284 285 284 284 284 284 284 285 285 285 285 285 286 286 287
290 290 290 290 290 290 290 291 290 290 291 291 291 290 290 290 290 290 289 289 289 288 288 288 287 287 286 286 286 285 285 286 285 284 284 284 284 284 284 283 283 283 283 283 282 282 281 281 280 280 280 281 282 282 281 281 281 281 281 282 282 281 279 278 278 278 279 279 280 281 282 283 283 284 284 283 283 284 284 285 285 285 285 285 285 286
290 290 291 291 290 290 290 290 290 290 290 290 290 290 290 290 289 289 289 288 288 288 288 287 287 286 285 284 284 283 283 283 284 283 282 282 282 282 282 282 282 281 281 282 281 280 279 279 279 279 278 279 280 280 279 279 279 279 280 280 280 278 277 277 277 277 277 278 279 280 281 282 282 282 282 282 283 283 283 284 284 284 285 285 285 285
290 290 290 290 290 290 290 290 290 290 290 290 290 289 289 289 288 288 287 287 286 286 285 285 285 285 284 283 282 281 281 282 282 281 280 281 281 281 281 280 280 280 281 280 279 278 277 277 277 276 276 277 278 277 277 277 278 278 279 278 277 275 275 275 275 275 276 277 278 279 279 280 280 280 280 281 281 282 283 283 284 284 284 285 285 285
290 290 290 290 289 290 290 289 290 289 289 290 289 288 287 287 286 286 285 284 284 283 282 282 282 282 283 283 282 280 279 279 280 279 278 279 280 280 279 278 277 277 278 277 276 275 275 275 275 274 274 275 275 275 275 275 276 277 278 276 274 273 273 273 273 273 275 276 276 277 277 277 277 278 279 279 280 280 281 282 283 283 284 285 285 285
Wind_Speed
8 4 3 6 11 14 12 11 14 13 6 4 3 5 7 7 9 9 12 11 2 4 8 10 18 18 15 14 13 23 24 20 28 33 33 34 32 31 34 41 45 49 53 50 48 47 46 47 46 44 42 41 42 42 43 44 43 43 42 41 41 41 43 44 46 46 46 46 47 48 48 49 50 51 51 52 51 50 48 47 46 46 45 44 43 43
5 6 7 12 15 11 6 7 9 8 6 6 5 7 7 6 12 11 11 13 2 1 7 7 17 20 14 13 12 19 20 16 22 26 31 34 33 33 35 41 47 50 52 51 50 48 44 45 43 41 39 38 39 40 41 42 42 41 40 40 40 41 43 45 46 47 46 46 46 45 44 45 47 49 50 51 51 50 50 49 49 48 47 46 45 44
3 5 11 16 12 4 3 1 2 4 6 7 5 6 7 5 10 10 8 11 3 1 7 7 16 19 13 14 15 16 18 22 28 28 33 38 35 37 39 42 46 48 50 51 50 48 44 42 41 39 38 37 36 36 37 37 37 37 38 38 38 39 42 44 46 48 47 46 45 44 43 43 45 47 48 49 50 50 51 51 50 49 49 49 47 46
5 6 13 17 9 4 6 1 4 2 5 6 5 5 8 5 6 8 4 6 4 3 7 9 16 16 12 14 14 19 24 27 31 31 36 41 39 42 46 44 43 45 49 52 50 47 43 40 40 39 38 37 34 33 33 33 33 34 34 35 36 37 39 41 44 46 46 46 46 46 46 45 46 46 47 49 51 53 54 53 52 52 52 51 48 47
9 6 7 7 6 7 8 4 2 6 7 7 7 6 11 10 10 10 5 7 6 5 5 7 14 12 6 8 7 12 17 19 26 27 29 39 44 45 43 41 42 44 48 49 48 46 43 40 39 38 37 35 34 33 32 31 31 31 31 32 34 35 37 39 41 43 46 48 48 48 48 48 48 48 48 51 54 56 57 55 54 54 53 52 50 49
10 8 4 3 4 7 7 6 6 7 8 7 6 11 16 15 11 12 9 7 6 5 4 5 8 10 2 6 5 6 5 8 15 15 21 36 44 38 33 37 40 40 41 43 43 42 39 37 35 34 33 33 32 31 30 30 30 30 30 31 32 33 35 37 39 42 45 47 49 50 50 50 50 50 52 53 54 55 56 55 54 53 53 53 52 51
5 7 5 5 6 6 6 6 8 9 7 8 5 11 15 11 9 10 9 5 2 4 3 4 1 9 5 3 8 8 5 8 10 9 17 30 32 29 30 35 35 34 36 38 38 38 36 35 32 30 28 28 28 27 27 28 28 29 29 30 31 32 33 35 37 40 43 46 48 49 50 49 49 50 51 51 51 51 50 51 52 52 53 54 54 53
4 2 1 3 4 6 5 6 7 10 5 7 4 6 8 7 8 7 5 4 4 3 4 1 4 6 12 5 5 6 6 8 12 12 16 20 22 26 30 31 30 31 34 35 37 37 34 31 29 27 26 24 23 22 23 24 25 26 28 29 31 32 33 34 36 39 41 44 45 47 48 49 50 50 49 48 47 47 47 48 50 51 53 54 54 54
4 4 5 5 5 4 6 5 6 12 6 6 2 4 4 5 5 3 4 4 2 4 4 2 4 3 12 6 2 0 4 7 13 15 13 12 17 25 28 27 26 27 30 32 33 32 30 29 27 26 26 23 20 19 20 21 21 23 26 28 31 32 33 34 36 38 40 42 43 44 46 47 48 49 49 48 46 46 46 47 48 50 52 53 54 54
1 3 6 8 6 6 8 4 8 13 7 4 5 5 4 3 2 3 3 3 2 3 5 5 5 3 11 7 3 4 2 7 10 10 8 10 17 24 25 23 23 25 28 30 29 28 29 29 27 26 24 22 20 19 18 19 20 22 24 27 29 31 33 35 36 38 39 40 41 42 44 45 46 47 48 48 47 46 46 47 48 49 50 51 52 53
4 2 3 6 6 6 5 2 3 8 6 3 6 4 5 4 4 4 1 3 3 6 6 10 12 7 7 5 4 3 4 6 6 7 6 9 16 19 19 20 25 28 30 29 29 28 28 27 25 23 22 24 25 23 21 20 21 22 24 26 29 30 32 34 35 36 36 38 39 40 41 42 43 45 46 47 47 47 47 47 47 48 49 49 50 51
3 3 2 5 8 6 6 3 1 1 3 4 3 3 3 4 4 4 4 3 1 7 5 10 12 9 8 6 1 4 5 5 5 6 7 7 11 16 20 24 28 30 30 30 32 33 33 32 30 27 26 28 30 27 24 22 22 24 25 26 29 31 33 34 34 35 35 36 37 38 39 40 41 43 44 45 45 46 46 46 46 47 48 48 49 49
2 5 4 2 6 8 6 2 2 3 3 4 3 3 0 4 3 3 3 1 4 8 5 5 6 5 11 8 3 8 12 10 8 8 10 9 12 22 29 31 32 32 33 33 34 35 36 35 34 32 30 29 28 27 25 24 23 25 27 28 29 30 32 33 33 33 34 35 36 37 39 40 41 42 43 43 43 44 44 44 45 46 47 48 49 49
4 4 2 2 4 9 9 5 3 2 4 6 5 5 4 2 2 4 3 2 5 6 3 2 4 4 9 6 7 13 13 11 8 10 15 16 20 27 31 31 32 30 29 28 29 31 32 31 29 30 30 28 26 27 26 24 24 24 25 27 29 30 31 32 32 31 32 33 35 37 38 38 40 41 41 42 42 42 43 43 44 45 46 47 47 47
4 7 4 5 2 8 11 9 6 4 4 6 5 5 4 5 5 5 4 4 7 5 2 1 3 4 5 3 7 10 9 11 10 10 13 18 21 22 22 23 23 22 23 25 27 30 30 29 31 33 33 31 29 28 27 25 23 24 24 24 27 28 30 32 33 32 31 31 33 35 37 38 39 40 40 41 41 41 42 42 43 44 44 45 45 45
4 8 6 3 2 10 10 6 3 5 2 3 3 4 3 5 4 4 5 6 5 3 2 3 4 5 5 5 7 8 8 10 12 12 14 18 16 14 14 12 13 17 20 24 27 30 31 30 32 35 35 34 33 32 32 29 26 25 24 23 24 25 27 29 31 32 32 32 32 34 36 37 38 39 40 40 40 41 42 42 42 43 43 43 43 44
4 6 3 1 1 7 7 2 3 4 3 1 3 3 4 3 4 3 6 4 2 5 6 6 8 6 5 8 6 2 5 6 8 9 9 12 9 5 6 6 11 15 18 22 26 29 32 33 34 36 34 32 32 34 36 35 33 30 27 24 23 24 26 28 30 32 33 33 33 34 35 37 39 40 40 41 41 42 43 43 43 42 43 43 43 44
5 6 5 4 5 5 2 1 1 2 4 4 3 4 2 1 2 2 2 2 4 8 7 8 13 11 7 7 3 4 9 10 8 6 4 6 3 2 4 9 12 13 14 19 25 28 31 32 33 33 31 29 29 31 34 37 36 34 31 29 28 27 27 27 28 30 32 33 34 34 36 37 39 41 42 43 43 44 44 44 44 44 44 45 45 45
3 5 7 4 4 2 3 2 3 3 2 4 3 2 1 2 3 2 2 2 6 9 6 7 13 11 7 9 8 7 10 10 8 6 5 5 4 6 12 15 14 14 15 19 24 27 29 30 30 29 28 28 28 30 32 34 36 35 32 30 30 32 31 30 30 30 30 32 33 36 37 38 39 40 41 43 44 45 45 45 46 46 47 47 47 48
1 3 5 1 2 1 3 0 4 3 1 0 1 2 1 3 4 3 3 2 4 9 7 7 9 7 7 9 10 8 8 7 6 5 5 4 7 13 17 19 23 25 26 25 23 24 27 27 28 28 28 27 27 31 33 33 33 33 32 31 29 29 30 32 32 32 32 31 32 34 36 38 39 39 40 41 42 44 45 45 46 46 47 48 49 49
1 4 6 2 1 1 2 4 6 5 4 2 2 3 3 2 2 2 2 2 2 6 7 7 8 6 5 6 8 8 6 5 5 4 6 8 12 17 19 22 28 30 32 30 27 27 28 28 28 28 29 29 29 31 32 32 31 29 29 29 28 27 27 29 31 32 33 33 33 34 35 36 38 39 40 41 41 42 43 43 43 44 45 47 49 50
2 4 5 2 2 5 6 5 6 6 5 4 4 4 5 4 2 4 6 4 4 6 6 8 9 6 3 5 8 6 3 4 5 4 6 12 18 20 20 23 24 24 26 28 29 30 32 33 33 31 30 31 32 33 32 31 29 27 25 25 25 25 25 26 28 29 31 32 34 37 38 38 39 41 42 42 42 41 41 41 41 42 45 46 48 50
1 0 2 4 5 7 8 5 5 5 2 1 2 2 3 3 3 5 8 6 5 6 6 8 9 5 3 7 12 11 9 7 7 7 9 14 20 22 22 24 22 21 22 23 25 27 30 33 35 35 34 33 33 34 34 33 30 28 26 24 24 24 23 23 25 26 28 29 31 35 38 40 42 42 43 43 42 40 39 39 41 44 46 47 49 51
2 1 3 5 4 5 8 8 3 2 1 4 4 4 5 6 5 7 7 5 5 5 5 8 8 3 2 5 9 12 15 15 14 13 12 13 19 24 26 26 26 25 24 24 25 25 26 29 33 36 37 36 34 34 34 34 32 29 27 25 24 24 24 23 23 25 26 26 26 28 33 37 39 41 42 43 43 40 38 39 42 45 47 49 51 52
1 2 3 4 4 4 5 7 4 2 1 3 4 6 7 9 10 10 7 6 5 6 8 9 7 4 3 4 6 9 14 18 15 18 23 20 22 25 27 29 30 29 28 27 28 27 25 27 30 33 35 35 34 33 33 32 32 30 28 27 26 26 26 25 23 24 26 26 25 25 28 32 35 37 39 40 41 40 40 41 44 46 48 49 50 52
2 3 4 4 6 7 6 5 3 3 1 1 2 5 6 8 12 10 7 7 7 8 10 10 9 7 5 6 8 10 13 15 13 22 27 23 22 25 27 29 29 29 30 30 31 30 28 27 27 29 32 33 34 34 34 34 34 33 31 29 29 29 28 27 25 25 25 26 27 27 27 29 32 35 36 37 39 40 42 45 47 48 49 50 50 51
2 2 5 8 9 10 10 9 6 7 7 7 8 8 7 7 9 8 7 8 9 10 10 10 11 11 10 9 9 8 9 11 10 14 18 20 23 24 25 27 29 30 30 30 30 30 30 30 30 29 31 33 35 36 36 37 37 38 37 35 33 32 32 31 29 27 26 26 27 28 28 27 28 31 33 36 38 40 43 46 49 50 51 51 51 51
2 3 5 10 12 11 11 13 11 10 10 11 13 13 13 12 12 11 12 12 11 11 11 10 12 14 11 6 6 8 9 9 8 10 12 15 18 21 24 27 29 30 30 31 32 32 32 33 34 34 34 35 36 37 38 38 38 39 40 39 36 33 33 34 33 31 30 28 28 28 28 27 25 26 27 30 33 36 40 43 47 50 51 51 51 51
2 4 5 9 11 9 9 11 11 10 11 10 11 13 15 16 16 16 17 17 14 14 14 13 17 18 12 5 6 7 7 7 8 10 12 14 17 20 22 25 27 29 30 31 32 33 33 34 36 37 38 38 38 39 40 40 39 39 39 38 36 35 34 34 35 34 33 32 31 30 29 28 27 26 26 26 29 32 35 38 42 46 49 51 52 52
3 4 5 7 8 9 11 13 12 12 12 11 11 12 13 15 17 18 18 17 17 19 18 17 20 18 6 3 4 5 6 7 9 11 12 14 18 19 20 22 24 26 28 29 30 31 32 34 36 38 39 39 40 41 41 41 41 40 40 39 38 37 35 35 34 34 34 33 31 30 29 28 28 27 26 25 27 29 31 35 38 41 45 48 50 51
4 4 6 7 8 11 14 14 13 12 12 13 13 13 14 17 18 18 16 15 17 19 17 16 18 12 1 4 4 6 7 8 10 12 11 13 16 18 18 20 21 22 25 26 27 28 30 33 36 38 39 39 40 40 41 41 41 40 40 39 39 38 37 36 34 33 33 33 32 30 27 26 26 26 25 24 24 26 28 31 34 38 41 44 47 50
3 4 5 6 7 9 11 14 15 13 12 14 15 16 19 19 17 16 16 14 13 12 13 13 11 5 2 3 4 6 7 8 8 10 10 10 14 17 18 19 19 19 22 23 24 26 29 32 34 36 37 37 38 38 39 40 41 41 41 40 40 38 37 35 34 33 32 32 32 32 30 27 25 24 24 23 22 23 25 28 32 35 37 40 43 46
4 4 4 6 7 8 11 13 12 10 10 12 11 12 16 16 14 14 12 8 6 4 5 6 2 1 2 4 5 6 7 7 8 12 12 10 10 15 18 19 18 18 20 21 22 24 27 29 31 33 34 34 35 36 37 37 38 40 41 40 40 39 38 37 36 35 34 32 32 32 33 32 30 28 26 23 22 23 24 27 29 31 33 36 39 43
5 5 5 5 5 8 12 9 7 7 10 9 4 2 5 5 5 5 2 3 4 2 2 1 2 1 2 3 4 5 8 9 11 15 16 11 9 16 21 20 18 19 20 21 21 23 26 28 30 31 31 31 32 33 35 36 37 38 38 39 40 40 40 39 38 37 36 35 34 33 34 35 34 34 32 28 26 24 24 25 26 28 30 33 37 41
6 6 4 3 4 6 7 6 6 8 7 3 1 1 2 4 5 5 5 4 3 4 5 2 3 2 2 4 5 7 11 13 14 18 17 10 9 17 21 19 19 20 22 22 22 24 26 28 29 30 30 31 31 32 33 34 36 37 37 37 38 39 40 40 39 38 37 37 36 36 36 37 37 37 37 34 32 29 27 26 25 27 29 31 35 39
8 6 3 2 4 3 2 4 6 5 2 2 3 1 3 4 5 5 3 3 3 4 4 1 3 4 4 7 9 11 14 15 15 17 13 7 9 18 20 20 22 22 22 23 23 24 26 27 28 29 29 30 31 31 31 32 33 35 36 36 36 37 38 38 38 38 37 37 37 37 37 38 38 38 38 38 36 34 31 29 27 26 28 30 33 36
9 6 3 3 5 4 4 6 7 7 7 4 3 1 2 3 2 1 1 2 3 3 2 2 4 5 7 9 13 14 14 11 11 10 7 6 12 20 20 22 24 23 24 25 25 25 26 27 27 27 27 29 29 30 30 30 31 32 33 35 35 35 36 36 36 36 36 36 36 36 36 37 37 37 37 37 37 36 34 32 29 27 26 28 31 33
9 8 6 5 5 4 5 6 5 7 7 3 3 4 4 4 5 3 1 2 3 3 5 6 6 7 7 9 13 12 8 6 6 6 7 9 14 20 22 24 24 24 26 26 26 27 27 27 27 26 26 27 27 28 28 29 29 30 32 33 33 34 35 35 36 35 35 35 35 35 35 35 35 36 36 35 35 35 34 33 31 29 27 27 29 30
5 7 7 6 6 4 5 6 5 6 5 3 5 7 5 4 5 3 2 1 3 4 7 9 8 8 9 11 12 8 2 3 5 8 11 12 14 20 24 25 25 25 26 26 27 28 28 28 28 28 28 29 28 27 27 27 28 29 30 31 32 33 34 35 35 35 35 35 34 34 34 34 33 34 34 34 34 34 33 33 32 31 29 27 27 28
2 2 4 5 6 6 5 6 5 4 4 4 6 7 5 2 3 2 6 4 2 5 7 11 11 10 12 15 12 5 3 6 8 14 22 21 19 21 24 27 27 27 27 28 28 29 30 30 31 31 32 32 31 30 29 28 29 29 29 30 31 32 33 34 35 35 35 35 34 33 33 33 33 33 32 33 34 34 34 33 32 31 30 29 28 27
1 1 2 4 6 7 8 7 5 4 4 4 6 7 4 2 3 2 7 3 2 9 9 10 14 14 15 17 13 9 13 20 21 25 30 29 25 23 24 27 29 28 29 30 31 31 32 32 33 34 35 35 34 33 31 31 32 32 31 31 32 32 33 34 35 35 36 37 36 35 34 33 33 33 33 33 33 34 34 34 34 32 31 30 30 28
2 1 1 3 4 4 5 6 5 5 3 2 4 5 2 1 1 5 6 8 13 17 15 11 15 15 17 20 19 20 27 31 30 31 33 32 31 27 27 29 29 29 31 32 34 34 34 34 35 37 38 38 37 35 34 34 35 35 35 34 33 33 34 35 36 36 37 38 38 38 37 36 34 34 33 33 34 34 35 35 35 35 33 32 31 31
3 2 3 4 3 3 3 4 5 6 2 3 1 3 1 4 5 8 10 16 22 22 17 14 15 18 21 23 25 28 32 33 33 34 36 37 35 31 30 32 31 32 32 33 35 36 36 37 38 39 40 40 39 38 37 37 38 38 38 38 36 35 35 36 37 37 38 39 39 39 40 39 38 37 35 34 34 34 35 36 37 37 36 34 33 32
4 4 5 4 3 3 4 5 5 5 2 0 1 4 6 10 18 22 19 21 25 24 18 16 19 24 26 26 28 30 32 32 32 35 38 38 35 33 33 33 32 33 34 35 36 37 37 39 40 42 43 43 42 41 40 39 40 42 42 42 40 39 38 38 37 38 39 40 40 41 41 41 42 41 40 38 37 35 35 36 38 39 39 37 35 34
4 5 5 4 5 4 4 7 8 5 8 13 13 15 20 28 36 36 29 23 24 24 22 21 25 27 27 27 28 29 30 31 33 35 37 36 33 32 33 33 33 34 36 37 39 40 41 42 42 44 46 46 44 43 42 42 42 44 46 46 44 43 43 42 41 41 41 41 41 42 43 43 44 44 44 43 41 40 38 36 37 39 40 39 38 36
8 11 6 3 7 7 8 15 17 13 16 25 28 30 33 36 38 38 31 25 24 26 27 26 26 26 26 25 25 26 28 30 31 32 32 30 31 33 35 36 37 37 38 40 43 44 44 45 45 46 47 48 48 46 45 44 43 45 47 48 47 47 46 44 44 44 44 44 44 44 45 46 46 47 47 46 46 44 42 39 37 37 39 41 40 38
11 15 9 5 9 10 9 13 14 13 19 27 29 32 36 36 37 36 31 26 25 26 27 26 25 24 24 22 20 21 23 24 25 26 28 29 32 35 38 40 42 42 43 44 46 47 47 46 46 47 47 49 51 50 48 47 46 46 48 48 49 50 48 46 44 44 45 46 47 47 48 49 49 50 50 49 48 47 46 44 41 39 39 40 41 40
6 6 6 7 10 10 11 13 15 18 25 29 29 31 34 35 36 33 27 23 24 24 24 24 23 22 21 20 18 19 22 24 25 28 31 33 36 39 41 43 45 46 47 48 49 48 47 46 47 47 47 50 52 52 51 50 50 50 50 50 52 51 48 46 44 44 46 48 50 51 52 52 52 52 52 51 49 48 47 46 45 44 42 41 40 41
6 2 4 5 7 10 12 15 17 17 19 25 30 30 27 25 25 23 20 20 22 23 24 25 24 23 22 22 23 24 26 30 32 33 35 37 40 43 44 45 46 48 49 51 50 49 47 46 47 47 48 51 53 53 52 52 53 53 53 54 53 49 45 45 45 46 49 52 54 55 56 55 54 53 52 51 50 50 51 50 48 47 47 44 41 40
7 6 6 5 5 9 10 12 13 10 8 16 22 19 14 15 17 18 19 20 20 21 23 25 27 28 27 26 27 28 30 33 35 36 37 39 42 44 45 46 47 49 51 51 50 49 48 47 48 47 49 52 54 53 54 55 56 57 57 56 51 46 44 45 48 50 53 56 57 58 58 57 56 54 52 51 51 51 52 52 51 50 49 48 46 42
11 10 10 8 8 12 16 20 20 13 10 17 20 15 13 15 16 17 18 20 20 21 22 25 28 30 32 33 32 30 31 34 37 37 38 41 44 46 46 46 46 48 50 50 49 49 49 49 50 50 52 55 55 55 56 57 60 61 61 57 51 46 45 47 49 53 57 58 59 59 58 56 56 55 54 55 54 52 51 52 53 52 51 50 49 45
Wind_Direction
170 169 162 194 216 223 221 202 217 239 262 288 270 256 261 269 269 259 267 272 267 286 263 251 268 271 269 268 268 274 273 267 275 279 276 275 273 271 271 272 273 273 276 283 283 282 281 278 277 275 273 271 269 267 265 264 263 263 261 258 256 254 251 247 244 242 240 239 237 235 235 235 235 234 234 233 232 231 231 231 230 230 230 229 228 229
169 198 213 216 224 230 229 215 231 260 298 285 262 273 268 253 268 266 271 279 272 276 264 251 274 275 268 269 264 269 271 257 257 267 275 278 278 275 271 271 273 275 279 282 282 282 281 279 279 277 274 271 270 268 266 266 266 265 262 259 257 253 250 248 246 244 242 242 241 240 241 240 238 236 235 235 234 233 232 231 230 229 230 229 229 229
210 223 233 231 238 283 321 122 169 238 249 255 251 278 276 254 277 273 258 281 315 227 276 287 280 277 270 262 252 249 254 256 254 256 267 274 276 275 271 270 271 275 279 281 281 283 283 282 282 280 278 276 274 272 270 269 267 264 260 258 255 251 250 249 247 246 245 245 245 244 244 242 239 238 237 237 236 235 232 231 230 229 230 229 229 229
232 232 235 237 238 255 269 114 92 277 249 230 223 254 270 256 272 270 255 313 336 238 274 296 285 281 268 254 247 243 245 255 260 256 261 267 268 269 269 270 271 274 279 282 284 285 285 284 284 282 282 281 278 275 272 269 265 261 260 258 254 251 249 248 247 246 246 246 244 242 241 239 239 238 237 236 235 234 232 231 230 230 230 229 229 229
239 238 230 224 210 208 241 253 217 273 264 226 209 222 256 253 247 256 283 337 328 290 299 314 298 289 243 219 235 248 245 251 258 256 258 262 263 265 268 272 274 276 279 283 288 292 290 288 288 287 285 283 280 279 279 275 270 265 263 259 255 252 250 248 247 245 245 243 241 239 237 235 235 235 234 233 233 231 230 230 230 230 230 230 230 229
250 253 230 153 186 190 208 243 220 224 255 259 216 213 240 254 257 264 290 338 342 307 331 19 318 298 176 157 225 256 247 242 249 248 247 252 257 263 269 274 278 282 284 285 291 298 299 297 296 295 290 287 286 287 287 282 275 270 264 259 255 252 250 248 246 244 243 243 241 239 236 235 234 233 233 232 232 231 230 230 230 230 231 231 231 230
249 250 230 193 200 171 173 246 226 196 242 280 236 212 232 250 262 266 279 310 293 261 293 68 360 287 293 176 226 239 219 239 245 237 243 248 256 265 270 274 281 289 293 294 298 303 305 306 306 306 303 297 294 296 292 284 277 270 264 259 254 251 249 247 245 244 243 242 241 241 240 240 239 238 238 236 235 234 234 233 232 231 231 231 231 231
204 224 235 193 171 146 174 247 218 169 196 269 241 194 211 231 244 247 238 236 243 280 308 58 129 276 285 258 223 221 199 246 257 244 248 251 259 267 269 274 284 293 298 301 304 309 313 316 317 319 321 313 307 303 292 282 277 271 265 259 254 251 248 246 245 243 242 242 242 242 241 241 242 242 243 242 239 238 237 235 234 233 232 231 231 232
156 191 206 164 128 161 203 220 169 153 186 248 189 141 172 203 222 194 179 210 272 346 307 245 131 253 278 282 24 145 187 241 254 249 260 267 265 267 268 274 286 295 300 301 306 315 324 330 334 336 336 333 325 314 297 284 275 269 263 258 254 250 248 245 243 243 242 243 242 242 242 241 242 243 243 243 241 240 238 236 234 234 233 233 232 232
182 197 188 153 145 210 212 193 159 163 196 220 127 97 76 74 65 100 154 147 66 314 256 202 165 227 279 282 71 66 201 233 251 256 272 282 272 268 270 281 295 300 300 300 309 325 336 343 348 348 346 344 339 329 313 291 274 263 256 253 250 247 246 244 242 242 241 242 241 241 241 241 242 242 241 241 240 240 238 237 236 235 235 234 234 233
242 136 136 168 197 204 165 122 166 174 180 130 108 61 33 29 31 55 69 86 73 281 239 191 187 195 276 281 134 168 214 209 255 279 275 276 272 269 275 292 301 303 304 310 318 333 347 353 354 353 350 347 342 337 328 308 284 268 255 248 247 246 244 243 242 242 241 241 240 240 241 241 241 241 240 240 240 239 238 237 236 236 236 236 235 235
257 165 188 219 207 174 122 103 354 93 132 118 103 64 16 332 6 28 354 54 157 265 242 192 186 187 237 260 192 255 251 209 223 263 274 275 277 282 291 296 297 300 309 318 323 330 339 341 341 340 339 338 336 333 330 320 298 280 266 253 247 244 243 242 242 241 241 240 240 240 240 240 240 240 240 241 241 241 240 238 237 237 237 237 237 236
277 212 219 217 199 180 152 155 333 16 106 129 124 128 14 313 342 342 314 103 211 259 259 186 164 208 245 260 282 269 268 255 228 228 248 257 276 287 292 293 296 301 311 321 326 333 341 342 342 339 337 336 334 333 331 325 312 295 280 266 254 246 245 243 241 241 241 241 240 240 240 239 239 239 240 242 242 243 243 242 240 238 238 237 237 236
281 261 188 135 236 193 165 174 230 241 170 162 158 161 170 197 249 260 253 251 259 267 288 180 157 252 275 277 244 241 258 277 264 238 247 259 271 279 286 295 304 315 328 340 347 353 358 0 1 357 354 350 346 342 335 328 321 308 293 279 266 255 249 245 243 241 242 242 242 241 241 240 239 239 240 241 241 243 244 243 243 242 241 240 239 238
255 286 207 173 222 175 178 205 202 142 157 187 167 146 171 183 207 235 220 249 269 274 308 243 179 225 270 272 232 233 262 291 288 269 267 270 270 277 291 307 324 343 359 5 8 13 15 18 20 16 10 5 1 354 344 338 329 315 304 290 276 265 256 250 246 244 244 245 244 243 242 242 241 240 241 241 242 243 243 244 244 244 244 243 243 243
224 270 247 214 141 156 182 223 159 112 156 220 128 117 219 199 186 244 241 232 255 287 281 238 227 225 234 265 260 256 272 281 286 286 281 276 276 289 305 325 354 8 14 13 15 20 20 18 15 10 8 6 4 2 357 357 352 336 320 302 288 276 266 257 251 248 249 249 248 246 244 243 242 242 241 241 241 241 242 244 244 245 245 246 246 247
232 265 267 45 164 179 192 201 144 169 203 170 122 189 234 168 146 245 269 251 234 261 250 238 260 270 279 285 276 299 315 301 300 300 287 281 285 295 302 337 360 5 20 20 13 11 6 3 2 1 2 1 360 360 360 359 358 353 345 330 313 294 279 268 258 253 251 251 252 252 249 246 244 243 243 243 242 242 242 243 244 245 246 246 247 247
246 263 257 231 241 237 198 118 293 229 153 133 182 222 227 114 133 186 262 283 245 250 245 235 257 272 285 281 286 6 330 306 298 315 322 301 306 59 341 342 351 355 7 8 5 5 3 360 357 355 359 2 2 358 354 353 352 350 348 344 336 322 304 287 274 264 257 254 255 256 255 252 249 247 246 246 245 245 245 245 245 245 245 246 246 246
242 257 276 262 237 246 63 53 292 290 165 166 214 245 120 199 235 190 190 239 243 251 248 222 245 261 260 261 272 289 291 291 295 316 337 320 323 338 330 336 344 343 345 359 8 7 2 359 358 356 357 359 359 354 351 350 349 347 344 340 339 335 324 306 289 276 268 263 261 259 259 258 256 254 252 250 248 248 248 248 248 248 248 248 247 248
149 240 273 263 167 85 41 154 219 240 273 313 307 322 14 187 203 196 194 205 238 254 257 231 233 242 241 259 275 266 260 276 285 296 309 301 315 327 334 344 348 345 349 2 13 8 0 359 360 2 3 2 357 353 352 352 349 348 344 339 337 334 329 318 304 289 279 273 269 266 263 262 261 259 257 255 253 252 252 252 253 253 253 253 252 252
129 242 249 223 138 269 253 216 204 204 208 190 203 243 248 223 222 259 239 183 222 257 263 252 243 236 235 266 271 252 244 255 246 258 294 309 329 337 343 349 350 350 347 347 354 3 6 7 5 4 2 1 357 353 353 353 351 348 343 341 338 334 331 326 317 302 288 278 274 272 270 268 266 263 261 259 258 257 257 257 259 260 259 258 257 256
206 236 238 212 226 235 233 214 186 183 174 162 178 207 221 218 234 275 255 220 215 242 248 253 256 245 243 292 287 267 239 236 237 263 310 319 326 331 338 350 357 357 348 340 340 346 353 0 7 9 4 358 353 352 353 353 352 350 344 340 337 336 337 334 326 314 298 286 279 275 273 271 269 266 264 262 261 261 261 262 263 262 261 261 261 260
51 224 267 249 238 247 260 248 185 179 179 178 206 228 237 207 177 223 246 243 236 244 251 260 264 249 232 289 298 297 297 288 280 290 301 310 321 334 350 4 10 7 2 359 353 346 344 346 350 353 356 357 355 352 352 353 355 356 352 344 337 336 337 334 329 323 312 302 293 286 279 274 271 269 267 266 265 265 265 267 266 264 263 262 261 259
47 91 268 262 263 290 294 287 262 174 249 272 255 236 237 240 238 239 253 275 274 265 269 267 264 246 223 269 282 291 300 298 297 315 335 349 0 8 13 16 16 12 10 8 4 358 350 344 341 343 347 352 354 352 350 350 353 356 357 353 347 343 340 334 328 322 318 314 307 300 291 284 278 274 271 270 269 269 270 272 270 268 266 264 262 260
325 273 269 281 286 297 297 291 308 18 184 232 247 237 233 241 254 261 266 277 272 239 239 256 261 243 247 282 287 291 297 295 312 3 26 32 29 24 21 19 16 13 10 6 4 3 355 349 350 353 356 357 358 358 356 354 355 357 360 359 356 353 349 342 331 322 317 315 311 306 301 294 287 281 278 277 276 275 275 274 272 272 270 267 265 264
257 263 255 272 272 266 274 271 288 334 294 220 271 253 243 237 240 253 261 258 254 233 229 247 262 260 259 278 279 281 295 304 343 28 35 30 26 23 21 21 18 15 13 9 7 7 5 2 357 357 2 4 4 4 2 1 0 1 2 3 1 356 352 346 338 328 320 313 308 303 301 299 293 289 286 284 283 281 279 275 273 273 273 272 269 267
211 246 231 239 253 261 276 279 291 310 291 283 289 274 272 266 250 256 260 252 263 264 250 250 267 276 274 275 285 304 330 343 12 33 30 24 23 22 21 21 22 21 19 17 14 12 10 10 6 2 0 1 1 2 0 359 0 1 2 2 1 358 353 348 341 334 328 321 313 306 302 301 298 293 289 285 284 284 281 278 275 273 273 273 271 268
204 285 249 250 263 267 282 292 300 305 288 284 292 285 282 281 269 264 259 258 268 272 265 266 274 277 276 294 347 10 3 2 16 22 24 26 23 22 23 24 24 22 20 19 17 15 12 10 8 5 1 358 357 356 355 355 356 357 359 359 358 356 354 351 347 341 334 328 322 315 309 304 298 293 288 284 282 281 279 278 277 275 273 271 270 269
194 280 266 266 280 283 295 302 301 299 291 286 289 286 286 285 278 271 267 269 273 269 272 279 277 276 284 328 23 30 5 356 7 7 14 24 22 22 25 24 23 20 17 14 11 9 9 6 3 1 359 357 356 354 353 353 352 353 354 354 354 354 354 355 353 350 344 337 329 322 314 306 298 293 289 285 281 279 278 277 277 276 274 272 271 270
221 264 267 274 294 297 293 291 286 286 286 284 279 277 280 280 275 274 276 278 275 271 274 278 276 278 294 23 7 3 358 356 3 1 7 17 18 18 20 21 20 16 12 9 5 3 2 359 358 357 356 355 354 353 352 351 351 351 350 350 352 353 353 355 355 356 356 351 343 332 321 311 302 295 291 288 286 283 280 279 277 275 274 273 272 270
247 272 299 304 302 292 286 284 281 279 280 283 282 277 274 271 270 273 276 274 271 271 272 269 270 276 44 72 343 338 348 355 4 3 1 7 8 10 12 12 12 10 7 2 359 358 356 353 354 354 353 353 352 351 350 349 348 348 348 348 350 350 351 352 352 356 359 360 357 350 338 325 313 304 297 295 293 289 285 282 278 275 273 272 272 270
268 285 309 303 283 276 278 280 283 286 284 278 273 267 265 264 266 267 265 266 271 277 282 278 272 281 28 28 340 337 346 353 359 351 340 347 1 4 1 359 358 0 359 355 353 353 351 350 351 350 350 350 349 348 347 346 345 345 345 346 347 348 348 348 349 351 354 357 359 360 357 349 338 326 317 310 304 298 292 286 280 276 274 273 272 270
246 258 275 277 273 273 271 274 288 300 289 271 259 254 255 258 264 267 268 290 315 306 292 291 279 264 306 325 340 344 348 350 343 336 327 323 345 353 347 343 344 346 345 345 346 346 346 346 346 346 346 345 345 345 344 343 342 342 342 343 343 344 344 344 346 346 347 349 352 355 359 359 357 353 345 333 321 310 300 291 285 282 279 277 274 270
230 234 248 252 260 273 277 291 312 288 266 267 269 230 231 244 266 270 268 31 32 62 110 143 164 191 279 307 328 330 332 329 322 325 323 310 317 333 332 330 332 334 335 335 336 338 341 342 341 340 340 340 341 341 340 339 339 338 338 340 340 341 341 341 342 343 344 344 345 346 348 350 353 355 355 352 343 330 317 306 298 292 286 281 275 270
245 234 241 240 247 273 291 314 298 257 242 258 320 80 121 128 110 107 120 114 112 115 107 133 210 198 239 273 279 287 301 309 312 317 315 297 297 319 323 323 324 326 326 326 327 331 335 336 336 335 336 336 337 336 336 335 335 334 335 337 337 338 338 338 339 340 342 343 343 343 342 342 344 346 349 352 352 348 338 326 313 303 293 284 277 272
242 244 244 232 245 269 273 241 247 259 268 220 218 106 79 109 102 98 127 171 179 149 116 129 225 198 225 262 269 280 293 300 307 310 299 272 308 321 319 317 317 316 318 319 320 323 328 331 332 331 331 331 331 331 331 330 330 330 331 334 335 335 335 336 337 338 339 340 342 343 343 342 341 340 342 345 348 350 349 340 328 315 302 289 281 274
224 236 236 237 240 238 235 232 244 286 298 257 213 136 102 145 140 103 156 190 195 202 207 220 226 216 221 245 261 279 295 302 308 306 259 243 315 323 316 314 313 310 311 314 315 318 322 325 325 324 324 324 324 326 326 326 327 326 327 329 332 332 333 334 335 337 338 338 339 340 341 340 339 338 338 339 340 344 346 343 336 326 311 297 287 279
211 221 223 243 246 238 265 272 265 278 280 248 217 240 224 194 188 188 254 186 171 256 254 207 212 235 224 236 257 271 292 302 300 292 246 257 308 318 313 312 310 306 307 310 311 313 316 318 318 316 315 315 316 320 322 322 322 323 323 325 327 328 330 331 333 336 337 337 337 337 336 335 334 334 333 334 335 337 339 340 338 333 323 309 298 290
191 217 221 242 258 258 276 279 267 269 269 234 221 234 245 238 186 159 318 255 148 301 264 202 207 241 227 235 251 249 268 290 285 291 280 278 302 314 312 309 307 305 304 305 307 308 310 313 313 311 311 311 311 314 316 316 316 317 318 320 321 322 324 326 329 332 333 334 334 333 332 331 329 328 328 328 329 330 331 334 335 334 329 321 310 301
66 225 210 226 250 253 254 258 257 260 254 232 226 232 253 266 126 92 305 273 161 303 261 199 210 247 242 243 248 218 198 242 265 294 298 293 294 306 313 311 308 304 302 302 303 303 305 309 311 311 311 311 310 311 310 309 310 309 310 312 313 315 318 321 323 325 327 328 329 329 329 328 326 324 323 323 323 324 326 327 329 330 330 326 319 310
315 255 196 208 236 242 246 257 264 255 244 227 216 221 242 19 79 237 272 276 335 314 290 219 224 254 261 252 242 221 236 252 267 287 295 292 287 295 309 310 306 303 301 301 302 300 301 305 308 309 310 310 311 309 307 306 305 305 305 306 306 309 313 315 315 317 319 320 322 324 325 325 324 323 321 320 319 318 320 322 324 326 327 326 322 314
248 252 251 226 231 236 234 250 273 276 262 187 198 230 246 73 222 245 275 322 325 315 304 261 242 263 276 267 258 255 258 265 274 282 287 286 281 286 300 305 301 297 297 299 300 299 300 302 304 305 306 308 309 307 306 304 302 302 304 304 304 307 309 309 310 311 313 314 315 317 319 320 321 320 320 319 317 315 314 316 318 320 321 322 321 316
231 256 275 233 217 250 250 247 263 269 248 124 131 300 265 175 244 292 312 317 314 308 297 275 267 280 286 278 273 272 270 272 278 283 287 284 279 282 294 300 297 290 289 292 294 295 296 299 301 303 304 305 305 305 305 303 301 301 302 301 302 306 306 305 306 307 307 308 309 311 313 315 316 317 317 317 317 315 313 312 313 315 316 318 318 315
238 234 256 245 224 239 240 231 226 231 248 309 257 275 271 274 292 304 306 305 306 301 287 276 284 293 294 289 284 280 275 274 280 287 288 282 278 283 291 295 292 286 285 288 290 292 294 297 299 301 301 301 302 302 303 302 300 300 299 299 302 304 303 303 304 304 303 304 305 306 308 309 311 312 313 314 314 313 312 311 311 310 311 313 314 312
238 228 242 255 251 230 218 247 258 279 306 299 283 276 284 290 293 296 296 294 294 292 288 287 293 299 302 298 291 283 277 278 284 288 285 280 280 285 289 290 287 285 287 290 292 294 297 299 300 300 299 299 299 300 300 300 299 298 298 299 301 302 301 302 302 301 301 300 300 302 303 305 306 308 309 310 310 309 309 310 309 307 307 307 308 307
262 263 265 277 272 266 259 264 272 287 293 287 284 283 285 286 287 289 292 291 289 293 297 299 299 303 305 301 293 285 281 283 285 285 282 281 283 285 287 288 288 289 292 293 295 297 299 300 300 300 299 299 299 299 298 297 296 295 296 298 299 300 300 299 299 299 298 298 298 298 299 301 303 304 305 306 305 305 305 305 305 304 303 302 301 301
260 255 249 252 264 267 266 263 264 270 273 275 278 281 281 282 285 287 290 292 294 300 302 302 302 303 302 298 293 288 285 285 286 286 286 289 290 290 292 293 294 296 298 298 299 300 300 300 299 298 297 298 298 298 297 295 293 292 293 294 296 296 297 298 297 297 296 296 296 296 297 298 300 301 302 302 302 301 301 300 300 299 298 297 297 297
258 242 223 233 247 250 258 265 265 266 269 271 274 276 278 282 285 287 290 294 297 300 299 299 301 302 301 299 298 297 295 294 296 299 300 300 299 298 298 299 300 300 300 300 300 300 299 298 297 296 295 295 295 296 294 292 292 292 291 292 292 293 294 295 295 294 293 292 292 293 294 295 296 297 298 298 298 298 298 297 296 295 293 292 293 293
262 264 219 223 248 259 263 269 273 273 272 272 274 276 278 280 284 287 291 293 295 296 297 297 299 301 302 304 307 308 306 303 303 306 306 304 302 301 300 300 300 299 299 299 299 298 297 296 295 295 294 293 293 293 292 291 291 291 291 291 291 292 293 292 291 290 289 289 289 290 291 292 293 293 294 294 294 294 294 294 293 291 290 289 288 288
248 260 254 244 263 266 262 265 270 272 273 276 282 288 289 285 287 292 295 297 300 302 302 302 301 301 304 308 311 312 310 307 306 306 305 302 301 300 299 299 299 298 297 297 297 296 296 295 294 294 292 291 291 291 290 290 290 290 290 290 290 290 291 290 288 287 287 286 287 288 288 289 290 290 289 289 289 289 290 290 290 288 287 286 285 284
235 244 252 250 254 261 268 274 275 274 273 278 288 302 305 297 298 301 303 306 308 308 310 311 310 309 310 311 314 315 313 310 309 308 305 302 302 301 300 299 298 298 297 298 297 297 296 295 294 293 291 290 290 289 289 288 288 288 289 288 289 290 289 288 287 286 285 285 285 285 286 286 285 286 286 285 285 284 284 285 285 284 283 283 283 282